Regional Weather Roundup
Issued by NWS Newport/Morehead, NC

Current Version | Previous Version | Graphics & Text | Print | Product List | Glossary Off
Versions: 1 2 3 4 5 6 7 8 9 10 11 12 13 14 15 16 17 18 19 20 21 22 23 24 25 26 27 28 29 30 31 32 33 34 35 36 37 38 39 40 41 42 43 44 45 46 47 48 49 50

000
ASUS42 KMHX 232313
RWRMHX
WEATHER ROUNDUP FOR EASTERN NORTH CAROLINA
NATIONAL WEATHER SERVICE NEWPORT/MOREHEAD CITY NC
700 PM EDT FRI JUN 23 2017

NOTE: "FAIR" INDICATES FEW OR NO CLOUDS BELOW 12,000 FEET
WITH NO SIGNIFICANT WEATHER AND/OR OBSTRUCTIONS TO VISIBILITY

NCZ015>017-031-032-045>047-102-103-240000-
NORTH COAST

CITY           SKY/WX    TMP DP  RH WIND       PRES   REMARKS
EDENTON        MOSUNNY   89  75  62 SW12G18   29.86F
ELIZABETH CITY SUNNY     87  77  72 SW15      29.84F
KITTY HAWK     PTCLDY    85  76  75 S9G18     29.86S
MANTEO         MOSUNNY   85  77  77 SW21      29.88S

$$

NCZ045>047-081-094-103-104-240000-
CENTRAL COAST

CITY           SKY/WX    TMP DP  RH WIND       PRES   REMARKS
FRISCO         SUNNY     82  75  79 SW16G26   29.93F

$$

NCZ095-097-098-100-101-240000-
SOUTHERN COAST

CITY           SKY/WX    TMP DP  RH WIND       PRES   REMARKS
BEAUFORT       SUNNY     82  77  84 SW21      29.94S
CEDAR ISLAND   NOT AVBL
JACKSONVILLE   SUNNY     84  77  79 S12       29.92R
PINEY ISLAND   CLEAR    N/A N/A N/A SW18G28   29.93S
WILMINGTON     SUNNY     84  72  67 S15       29.94R


$$

NCZ011>013-027>030-043-044-078>080-089-090>093-098-240000-
COASTAL PLAIN

CITY           SKY/WX    TMP DP  RH WIND       PRES   REMARKS
AHOSKIE          N/A     85  74  68 S7        29.84S
CLINTON        SUNNY     89  75  63 SW8       29.89F
ELIZABETHTOWN  NOT AVBL
GOLDSBORO      SUNNY     90  74  59 SW12      29.86F
GREENVILLE     SUNNY     90  72  55 SW13G18   29.89S
HAVELOCK       MOSUNNY   83  74  74 SW15G24   29.93S
KENANSVILLE    MOSUNNY   90  75  62 SW5       29.89S HX 100
KINSTON        SUNNY     90  72  55 SW10G17   29.89S
NEW BERN       SUNNY     85  77  77 S12       29.91F
RICHLANDS      MOSUNNY   87  78  74 S15G21    29.91S HX 100
ROCKY MOUNT    SUNNY     88  74  63 S13G24    29.86S
WASHINGTON     SUNNY    N/A N/A N/A SW13G21   29.87F
WHITEVILLE     SUNNY     87  77  72 S8        29.92S

$$

AMZ130-135-150-152-154-156-158-170-250-252-270-ANZ085-086-088-633-658-670-240000-
MARINE OBSERVATIONS

STATION/POSITION TIME  TEMP    WIND        PRES    WAVE   SWELL
                       AIR SEA DIR/SP/G            HT/PER HT/PER
                 (UTC) (F)     (DEG/KT/KT) (MB)    (FT/S) (FT/S)
CHESAPEAKE LIGHT NOT AVBL
64 E VA BEACH    2250   75 72  200/ 21/ 25 1010.8    4/ 5   2/ 9
DUCK             2236   85 64  200/ 17/ 21 1010.4
2 E DUCK         NOT AVBL
OREGON INLET     2248          190/ 25/ 27 1012.0
13E OREGON INLT  2248      72                N/A     4/ 5   2/ 8
HATTERAS CG      2236   80 80  220/ 14/ 22 1013.5
DIAMOND BUOY     2250   81 80  220/ 21/ 25 1013.6    5/ 5   2/ 8
CAPE LOOKOUT     2300   81     210/ 14/ 18 1013.6
BEAUFORT LAB     2236   81 79  210/ 13/ 20 1013.2
30 SE NEW RVR IN 2208   81 81  230/ 17/ 23 1014.5
30 SE NEW RVR IN 2243      81                N/A     5/ 5
27 SE WRIGHTSVLE 2208   80 80  210/ 16/ 25 1014.3
5 SE WRIGHTSVLE  2208   81 80  200/ 14/ 21 1014.1
225 S CAPE HAT   2250   81 82  190/ 10/ 14 1018.1    4/ 9   3/ 9
41 SE CHARLESTON 2250   81 81  200/ 17/ 21 1015.0    4/ 5   2/ 8

$$



USA.gov is the U.S. government's official web portal to all federal, state and local government web resources and services.